| time (UTC) | temp F | wind direction | speed knots | gust knots | rain 1hr in | rain 24hr in | rain mn in | humidity % | barometer mb |
| 20260506231446 | 55 | 192 | 4.3 | 12.2 | 0.05 | 0.21 | 0.21 | 91 | 1007.2 |
| 20260506230946 | 55 | 217 | 5.2 | 13.9 | 0.05 | 0.20 | 0.20 | 92 | 1007.2 |
| 20260506230447 | 55 | 208 | 4.3 | 13.9 | 0.06 | 0.20 | 0.20 | 91 | 1007.2 |
| 20260506225946 | 55 | 213 | 4.3 | 11.3 | 0.07 | 0.20 | 0.20 | 91 | 1007.2 |
| 20260506225445 | 55 | 190 | 4.3 | 11.3 | 0.08 | 0.20 | 0.20 | 91 | 1007.2 |
| 20260506224944 | 55 | 227 | 4.3 | 14.8 | 0.09 | 0.20 | 0.20 | 91 | 1007.2 |
| 20260506224710 | 55 | 254 | 4.3 | 14.8 | 0.09 | 0.20 | 0.20 | 91 | 1007.0 |
| 20260506223943 | 55 | 190 | 3.5 | 12.2 | 0.09 | 0.19 | 0.19 | 91 | 1007.1 |
| 20260506223707 | 55 | 192 | 4.3 | 9.6 | 0.09 | 0.19 | 0.19 | 91 | 1006.9 |
| 20260506222941 | 55 | 175 | 5.2 | 7.8 | 0.10 | 0.19 | 0.19 | 91 | 1007.1 |
| 20260506222440 | 55 | 188 | 5.2 | 10.4 | 0.10 | 0.19 | 0.18 | 91 | 1007.1 |
| 20260506221940 | 55 | 210 | 4.3 | 10.4 | 0.08 | 0.17 | 0.17 | 91 | 1007.1 |
| 20260506221440 | 55 | 173 | 3.5 | 9.6 | 0.08 | 0.16 | 0.16 | 91 | 1007.1 |
| 20260506220941 | 55 | 248 | 4.3 | 12.2 | 0.07 | 0.15 | 0.15 | 91 | 1007.2 |
| 20260506220441 | 55 | 165 | 4.3 | 13.0 | 0.07 | 0.14 | 0.14 | 91 | 1007.2 |
| 20260506215941 | 55 | 227 | 4.3 | 13.9 | 0.06 | 0.13 | 0.13 | 91 | 1007.3 |
| 20260506215718 | 55 | 219 | 4.3 | 13.9 | 0.05 | 0.12 | 0.12 | 91 | 1007.3 |
| 20260506214942 | 55 | 192 | 4.3 | 13.0 | 0.04 | 0.11 | 0.11 | 91 | 1007.3 |
| 20260506214442 | 55 | 235 | 3.5 | 10.4 | 0.04 | 0.11 | 0.11 | 90 | 1007.5 |
| 20260506214211 | 55 | 240 | 4.3 | 13.0 | 0.03 | 0.10 | 0.10 | 90 | 1007.5 |
| 20260506213717 | 56 | 175 | 4.3 | 13.0 | 0.03 | 0.10 | 0.09 | 90 | 1007.6 |
| 20260506212936 | 56 | 207 | 5.2 | 12.2 | 0.03 | 0.09 | 0.09 | 90 | 1007.6 |
| 20260506212714 | 56 | 201 | 5.2 | 12.2 | 0.03 | 0.09 | 0.09 | 90 | 1007.6 |
| 20260506211934 | 56 | 270 | 4.3 | 12.2 | 0.03 | 0.09 | 0.09 | 90 | 1007.6 |
| 20260506211433 | 56 | 210 | 4.3 | 12.2 | 0.02 | 0.08 | 0.08 | 90 | 1007.8 |
| 20260506210934 | 56 | 186 | 4.3 | 10.4 | 0.02 | 0.08 | 0.08 | 90 | 1007.7 |
| 20260506210434 | 56 | 229 | 4.3 | 12.2 | 0.02 | 0.07 | 0.07 | 90 | 1007.8 |
| 20260506205437 | 56 | 175 | 6.1 | 14.8 | 0.02 | 0.07 | 0.07 | 90 | 1007.8 |
| 20260506204432 | 56 | 186 | 6.1 | 17.4 | 0.02 | 0.07 | 0.07 | 90 | 1008.0 |
| 20260506203930 | 56 | 240 | 5.2 | 17.4 | 0.02 | 0.07 | 0.07 | 89 | 1008.0 |
| 20260506203430 | 56 | 219 | 5.2 | 16.5 | 0.02 | 0.07 | 0.06 | 89 | 1008.1 |
| 20260506202932 | 56 | 220 | 4.3 | 16.5 | 0.02 | 0.06 | 0.06 | 89 | 1008.1 |
| 20260506202431 | 56 | 225 | 4.3 | 9.6 | 0.03 | 0.06 | 0.06 | 89 | 1008.1 |
| 20260506201929 | 56 | 154 | 4.3 | 14.8 | 0.04 | 0.06 | 0.06 | 89 | 1008.1 |
| 20260506201429 | 56 | 102 | 5.2 | 14.8 | 0.05 | 0.06 | 0.06 | 89 | 1008.2 |
| 20260506200929 | 57 | 244 | 4.3 | 13.0 | 0.06 | 0.06 | 0.06 | 89 | 1008.2 |
| 20260506200430 | 57 | 199 | 4.3 | 12.2 | 0.05 | 0.05 | 0.05 | 89 | 1008.2 |
| 20260506195931 | 57 | 182 | 5.2 | 17.4 | 0.05 | 0.05 | 0.05 | 89 | 1008.4 |
| 20260506195428 | 57 | 252 | 5.2 | 17.4 | 0.05 | 0.05 | 0.05 | 89 | 1008.2 |
| 20260506194925 | 57 | 227 | 5.2 | 13.0 | 0.05 | 0.05 | 0.05 | 89 | 1008.3 |
| 20260506194416 | 57 | 170 | 5.2 | 13.9 | 0.05 | 0.05 | 0.05 | 88 | 1008.4 |
| 20260506193914 | 57 | 160 | 4.3 | 13.9 | 0.05 | 0.05 | 0.05 | 89 | 1008.3 |
| 20260506193410 | 57 | 125 | 4.3 | 10.4 | 0.05 | 0.05 | 0.05 | 88 | 1008.4 |
| 20260506192923 | 57 | 219 | 5.2 | 16.5 | 0.04 | 0.04 | 0.04 | 88 | 1008.5 |
| 20260506192142 | 57 | 227 | 3.5 | 10.4 | 0.02 | 0.02 | 0.02 | 86 | 1008.6 |
| 20260506190913 | 58 | 196 | 4.3 | 12.2 | 0.00 | 0.00 | 0.00 | 85 | 1008.6 |
| 20260506190411 | 59 | 236 | 5.2 | 13.9 | 0.00 | 0.00 | 0.00 | 84 | 1008.9 |
| 20260506185410 | 60 | 147 | 6.1 | 13.9 | 0.00 | 0.00 | 0.00 | 82 | 1008.9 |
| 20260506185143 | 60 | 103 | 5.2 | 13.9 | 0.00 | 0.00 | 0.00 | 80 | 1008.9 |
| 20260506184410 | 60 | 219 | 5.2 | 13.0 | 0.00 | 0.00 | 0.00 | 80 | 1009.0 |
| 20260506184139 | 60 | 129 | 7.0 | 16.5 | 0.00 | 0.00 | 0.00 | 80 | 1009.0 |
| 20260506183412 | 61 | 212 | 6.1 | 16.5 | 0.00 | 0.00 | 0.00 | 80 | 1009.0 |
| 20260506182908 | 61 | 177 | 5.2 | 13.0 | 0.00 | 0.00 | 0.00 | 80 | 1009.0 |
| 20260506182410 | 61 | 168 | 6.1 | 13.0 | 0.00 | 0.00 | 0.00 | 79 | 1009.0 |
| 20260506182143 | 61 | 201 | 6.1 | 13.9 | 0.00 | 0.00 | 0.00 | 80 | 1009.2 |
| 20260506181409 | 62 | 188 | 6.1 | 15.6 | 0.00 | 0.00 | 0.00 | 79 | 1009.2 |
| 20260506181138 | 62 | 262 | 6.1 | 16.5 | 0.00 | 0.00 | 0.00 | 79 | 1009.4 |
| 20260506180408 | 62 | 200 | 7.0 | 20.9 | 0.00 | 0.00 | 0.00 | 79 | 1009.4 |
| 20260506175908 | 62 | 205 | 7.8 | 20.9 | 0.00 | 0.00 | 0.00 | 79 | 1009.3 |
| 20260506175408 | 62 | 165 | 6.1 | 14.8 | 0.00 | 0.00 | 0.00 | 79 | 1009.4 |
| 20260506174911 | 62 | 204 | 4.3 | 13.9 | 0.00 | 0.00 | 0.00 | 78 | 1009.4 |
| 20260506174408 | 62 | 149 | 5.2 | 18.2 | 0.00 | 0.00 | 0.00 | 78 | 1009.6 |
| 20260506173908 | 62 | 231 | 7.8 | 18.2 | 0.00 | 0.00 | 0.00 | 79 | 1009.7 |
| 20260506173409 | 62 | 229 | 7.8 | 17.4 | 0.00 | 0.00 | 0.00 | 78 | 1009.7 |
| 20260506172908 | 63 | 278 | 7.0 | 17.4 | 0.00 | 0.00 | 0.00 | 78 | 1009.8 |
| 20260506172410 | 63 | 205 | 7.0 | 17.4 | 0.00 | 0.00 | 0.00 | 77 | 1010.0 |
| 20260506171907 | 64 | 213 | 6.1 | 17.4 | 0.00 | 0.00 | 0.00 | 77 | 1010.2 |
| 20260506171409 | 64 | 196 | 6.1 | 20.0 | 0.00 | 0.00 | 0.00 | 77 | 1010.0 |
| 20260506170910 | 64 | 219 | 7.8 | 20.0 | 0.00 | 0.00 | 0.00 | 77 | 1009.9 |
| 20260506170409 | 64 | 188 | 7.0 | 19.1 | 0.00 | 0.00 | 0.00 | 76 | 1009.8 |
| 20260506165908 | 65 | 193 | 7.0 | 17.4 | 0.00 | 0.00 | 0.00 | 76 | 1009.9 |
| 20260506165410 | 64 | 151 | 7.8 | 17.4 | 0.00 | 0.00 | 0.00 | 77 | 1010.0 |
| 20260506164408 | 65 | 222 | 6.1 | 16.5 | 0.00 | 0.00 | 0.00 | 75 | 1010.1 |
| 20260506163908 | 64 | 171 | 6.1 | 16.5 | 0.00 | 0.00 | 0.00 | 77 | 1010.2 |
| 20260506163404 | 63 | 180 | 6.1 | 13.0 | 0.00 | 0.00 | 0.00 | 78 | 1010.4 |
| 20260506162906 | 63 | 242 | 5.2 | 18.2 | 0.00 | 0.00 | 0.00 | 78 | 1010.6 |
| 20260506162417 | 63 | 203 | 4.3 | 18.2 | 0.00 | 0.00 | 0.00 | 78 | 1010.4 |
| 20260506161905 | 63 | 233 | 5.2 | 11.3 | 0.00 | 0.00 | 0.00 | 78 | 1010.5 |
| 20260506161404 | 62 | 196 | 5.2 | 12.2 | 0.00 | 0.00 | 0.00 | 79 | 1010.7 |
| 20260506160904 | 62 | 209 | 4.3 | 15.6 | 0.00 | 0.00 | 0.00 | 78 | 1010.8 |
| 20260506160405 | 63 | 209 | 6.1 | 18.2 | 0.00 | 0.00 | 0.00 | 78 | 1010.7 |
| 20260506155902 | 63 | 113 | 5.2 | 18.2 | 0.00 | 0.00 | 0.00 | 77 | 1010.8 |
| 20260506155405 | 64 | 228 | 5.2 | 20.9 | 0.00 | 0.00 | 0.00 | 76 | 1011.0 |
| 20260506154408 | 65 | 196 | 6.1 | 18.2 | 0.00 | 0.00 | 0.00 | 74 | 1010.8 |
| 20260506153904 | 67 | 213 | 5.2 | 14.8 | 0.00 | 0.00 | 0.00 | 73 | 1010.7 |
| 20260506153403 | 67 | 205 | 4.3 | 13.9 | 0.00 | 0.00 | 0.00 | 72 | 1010.9 |
| 20260506152903 | 67 | 157 | 5.2 | 13.9 | 0.00 | 0.00 | 0.00 | 72 | 1010.9 |
| 20260506152402 | 66 | 138 | 6.1 | 13.9 | 0.00 | 0.00 | 0.00 | 74 | 1010.9 |
| 20260506151902 | 67 | 199 | 5.2 | 20.0 | 0.00 | 0.00 | 0.00 | 73 | 1010.9 |
| 20260506151401 | 67 | 205 | 6.1 | 20.0 | 0.00 | 0.00 | 0.00 | 74 | 1011.0 |
| 20260506150902 | 66 | 138 | 5.2 | 17.4 | 0.00 | 0.00 | 0.00 | 76 | 1011.0 |
| 20260506150400 | 66 | 206 | 5.2 | 14.8 | 0.00 | 0.00 | 0.00 | 74 | 1011.0 |
| 20260506145902 | 66 | 198 | 5.2 | 14.8 | 0.00 | 0.00 | 0.00 | 74 | 1011.1 |
| 20260506145401 | 65 | 207 | 5.2 | 19.1 | 0.00 | 0.00 | 0.00 | 76 | 1011.2 |
| 20260506144901 | 65 | 203 | 5.2 | 19.1 | 0.00 | 0.00 | 0.00 | 75 | 1011.2 |
| 20260506144405 | 65 | 222 | 4.3 | 17.4 | 0.00 | 0.00 | 0.00 | 75 | 1011.1 |
| 20260506144130 | 65 | 186 | 4.3 | 17.4 | 0.00 | 0.00 | 0.00 | 76 | 1010.9 |
| 20260506143402 | 65 | 228 | 4.3 | 15.6 | 0.00 | 0.00 | 0.00 | 76 | 1010.9 |
| 20260506142902 | 66 | 236 | 4.3 | 15.6 | 0.00 | 0.00 | 0.00 | 75 | 1011.0 |
| 20260506142402 | 65 | 240 | 5.2 | 17.4 | 0.00 | 0.00 | 0.00 | 76 | 1011.0 |
| 20260506141902 | 63 | 198 | 6.1 | 17.4 | 0.00 | 0.00 | 0.00 | 79 | 1011.2 |
| 20260506141401 | 63 | 244 | 4.3 | 13.9 | 0.00 | 0.00 | 0.00 | 77 | 1011.1 |
| 20260506140902 | 64 | 173 | 4.3 | 15.6 | 0.00 | 0.00 | 0.00 | 77 | 1011.1 |
| 20260506140358 | 64 | 173 | 6.1 | 15.6 | 0.00 | 0.00 | 0.00 | 78 | 1011.0 |
| 20260506140124 | 63 | 88 | 5.2 | 11.3 | 0.00 | 0.00 | 0.00 | 79 | 1010.8 |
| 20260506135357 | 63 | 199 | 4.3 | 11.3 | 0.00 | 0.00 | 0.00 | 78 | 1010.7 |
| 20260506135130 | 63 | 166 | 5.2 | 13.0 | 0.00 | 0.00 | 0.00 | 78 | 1010.7 |
| 20260506134357 | 64 | 218 | 5.2 | 13.9 | 0.00 | 0.00 | 0.00 | 78 | 1011.0 |
| 20260506134121 | 64 | 229 | 4.3 | 13.9 | 0.00 | 0.00 | 0.00 | 77 | 1011.1 |
| 20260506133627 | 65 | 215 | 4.3 | 14.8 | 0.00 | 0.00 | 0.00 | 76 | 1011.0 |
| 20260506132857 | 64 | 209 | 5.2 | 14.8 | 0.00 | 0.00 | 0.00 | 78 | 1011.1 |
| 20260506132357 | 64 | 211 | 4.3 | 11.3 | 0.00 | 0.00 | 0.00 | 79 | 1011.1 |
| 20260506131859 | 63 | 209 | 4.3 | 17.4 | 0.00 | 0.00 | 0.00 | 79 | 1011.2 |
| 20260506131356 | 62 | 207 | 4.3 | 17.4 | 0.00 | 0.00 | 0.00 | 80 | 1011.3 |
| 20260506130854 | 62 | 180 | 4.3 | 13.9 | 0.00 | 0.00 | 0.00 | 80 | 1011.3 |
| 20260506130353 | 61 | 232 | 5.2 | 13.9 | 0.00 | 0.00 | 0.00 | 81 | 1011.4 |
| 20260506125855 | 61 | 198 | 6.1 | 14.8 | 0.00 | 0.00 | 0.00 | 81 | 1011.3 |
| 20260506125354 | 60 | 202 | 4.3 | 14.8 | 0.00 | 0.00 | 0.00 | 81 | 1011.4 |
| 20260506124854 | 60 | 167 | 3.5 | 13.0 | 0.00 | 0.00 | 0.00 | 81 | 1011.3 |
| 20260506124354 | 61 | 160 | 3.5 | 11.3 | 0.00 | 0.00 | 0.00 | 82 | 1011.3 |
| 20260506123854 | 60 | 178 | 4.3 | 13.0 | 0.00 | 0.00 | 0.00 | 82 | 1011.3 |
| 20260506123352 | 60 | 232 | 5.2 | 13.0 | 0.00 | 0.00 | 0.00 | 83 | 1011.2 |
| 20260506123114 | 60 | 212 | 5.2 | 12.2 | 0.00 | 0.00 | 0.00 | 83 | 1011.3 |
| 20260506122614 | 60 | 177 | 5.2 | 13.0 | 0.00 | 0.00 | 0.00 | 83 | 1011.3 |
| 20260506121850 | 59 | 215 | 4.3 | 13.0 | 0.00 | 0.00 | 0.00 | 83 | 1011.4 |
| 20260506121349 | 59 | 286 | 3.5 | 13.0 | 0.00 | 0.00 | 0.00 | 84 | 1011.4 |
| 20260506120849 | 59 | 194 | 4.3 | 13.0 | 0.00 | 0.00 | 0.00 | 84 | 1011.4 |
| 20260506120349 | 59 | 234 | 5.2 | 13.0 | 0.00 | 0.00 | 0.00 | 84 | 1011.5 |
| 20260506115851 | 59 | 180 | 4.3 | 10.4 | 0.00 | 0.00 | 0.00 | 84 | 1011.5 |
| 20260506115356 | 58 | 202 | 3.5 | 10.4 | 0.00 | 0.00 | 0.00 | 84 | 1011.5 |
| 20260506114348 | 58 | 217 | 2.6 | 7.0 | 0.00 | 0.00 | 0.00 | 85 | 1011.6 |
| 20260506113847 | 58 | 207 | 3.5 | 12.2 | 0.00 | 0.00 | 0.00 | 85 | 1011.6 |
| 20260506113348 | 57 | 199 | 4.3 | 12.2 | 0.00 | 0.00 | 0.00 | 85 | 1011.7 |
| 20260506112847 | 57 | 195 | 3.5 | 9.6 | 0.00 | 0.00 | 0.00 | 86 | 1011.8 |
| 20260506112347 | 57 | 173 | 3.5 | 11.3 | 0.00 | 0.00 | 0.00 | 86 | 1011.7 |
| 20260506111847 | 57 | 187 | 3.5 | 11.3 | 0.00 | 0.00 | 0.00 | 86 | 1011.7 |
| 20260506111347 | 57 | 185 | 3.5 | 9.6 | 0.00 | 0.00 | 0.00 | 86 | 1011.8 |
| 20260506110847 | 57 | 168 | 3.5 | 10.4 | 0.00 | 0.00 | 0.00 | 86 | 1011.7 |
| 20260506110348 | 57 | 226 | 4.3 | 11.3 | 0.00 | 0.00 | 0.00 | 86 | 1011.7 |
| 20260506105848 | 57 | 186 | 4.3 | 13.9 | 0.00 | 0.00 | 0.00 | 86 | 1011.6 |
| 20260506105347 | 57 | 178 | 3.5 | 13.9 | 0.00 | 0.00 | 0.00 | 86 | 1011.6 |
| 20260506104847 | 57 | 178 | 3.5 | 13.9 | 0.00 | 0.00 | 0.00 | 86 | 1011.6 |
| 20260506104348 | 57 | 214 | 3.5 | 11.3 | 0.00 | 0.00 | 0.00 | 86 | 1011.6 |
| 20260506103846 | 57 | 197 | 3.5 | 11.3 | 0.00 | 0.00 | 0.00 | 86 | 1011.5 |
| 20260506103347 | 57 | 232 | 3.5 | 9.6 | 0.00 | 0.00 | 0.00 | 86 | 1011.5 |
| 20260506102847 | 57 | 224 | 3.5 | 10.4 | 0.00 | 0.00 | 0.00 | 86 | 1011.4 |
| 20260506102347 | 57 | 160 | 3.5 | 10.4 | 0.00 | 0.00 | 0.00 | 87 | 1011.4 |
| 20260506101842 | 57 | 225 | 3.5 | 11.3 | 0.00 | 0.00 | 0.00 | 86 | 1011.4 |
| 20260506101343 | 57 | 182 | 5.2 | 17.4 | 0.00 | 0.00 | 0.00 | 87 | 1011.3 |
| 20260506100345 | 57 | 229 | 5.2 | 13.9 | 0.00 | 0.00 | 0.00 | 87 | 1011.4 |
| 20260506095843 | 57 | 236 | 5.2 | 13.9 | 0.00 | 0.00 | 0.00 | 87 | 1011.3 |
| 20260506095342 | 57 | 204 | 4.3 | 13.0 | 0.00 | 0.00 | 0.00 | 87 | 1011.2 |
| 20260506094844 | 57 | 199 | 4.3 | 11.3 | 0.00 | 0.00 | 0.00 | 87 | 1011.2 |
| 20260506094343 | 57 | 191 | 4.3 | 11.3 | 0.00 | 0.00 | 0.00 | 87 | 1011.2 |
| 20260506093843 | 57 | 158 | 4.3 | 11.3 | 0.00 | 0.00 | 0.00 | 87 | 1011.3 |
| 20260506093336 | 57 | 178 | 4.3 | 12.2 | 0.00 | 0.00 | 0.00 | 87 | 1011.2 |
| 20260506092837 | 57 | 240 | 5.2 | 12.2 | 0.00 | 0.00 | 0.00 | 87 | 1011.3 |
| 20260506092337 | 57 | 198 | 4.3 | 12.2 | 0.00 | 0.00 | 0.00 | 87 | 1011.3 |
| 20260506091837 | 57 | 207 | 4.3 | 12.2 | 0.00 | 0.00 | 0.00 | 87 | 1011.4 |
| 20260506091337 | 57 | 221 | 4.3 | 14.8 | 0.00 | 0.00 | 0.00 | 87 | 1011.4 |
| 20260506090838 | 57 | 146 | 5.2 | 14.8 | 0.00 | 0.00 | 0.00 | 87 | 1011.4 |
| 20260506090337 | 57 | 173 | 5.2 | 13.0 | 0.00 | 0.00 | 0.00 | 87 | 1011.4 |
| 20260506085836 | 57 | 192 | 5.2 | 13.0 | 0.00 | 0.00 | 0.00 | 87 | 1011.4 |
| 20260506085335 | 57 | 207 | 6.1 | 20.0 | 0.00 | 0.00 | 0.00 | 87 | 1011.5 |
| 20260506084835 | 57 | 170 | 6.1 | 20.0 | 0.00 | 0.00 | 0.00 | 87 | 1011.5 |
| 20260506084334 | 57 | 178 | 5.2 | 12.2 | 0.00 | 0.00 | 0.00 | 87 | 1011.6 |
| 20260506083833 | 57 | 198 | 5.2 | 19.1 | 0.00 | 0.00 | 0.00 | 87 | 1011.6 |
| 20260506083332 | 57 | 164 | 5.2 | 19.1 | 0.00 | 0.00 | 0.00 | 87 | 1011.7 |
| 20260506082832 | 57 | 167 | 3.5 | 11.3 | 0.00 | 0.00 | 0.00 | 86 | 1011.7 |
| 20260506082332 | 57 | 190 | 3.5 | 9.6 | 0.00 | 0.00 | 0.00 | 86 | 1011.7 |
| 20260506081831 | 57 | 97 | 4.3 | 9.6 | 0.00 | 0.00 | 0.00 | 86 | 1011.7 |
| 20260506081334 | 57 | 227 | 5.2 | 13.9 | 0.00 | 0.00 | 0.00 | 86 | 1011.9 |
| 20260506080830 | 57 | 235 | 6.1 | 14.8 | 0.00 | 0.00 | 0.00 | 86 | 1011.8 |
| 20260506080330 | 57 | 235 | 6.1 | 16.5 | 0.00 | 0.00 | 0.00 | 86 | 1011.7 |
| 20260506080105 | 58 | 194 | 5.2 | 16.5 | 0.00 | 0.00 | 0.00 | 86 | 1011.8 |
| 20260506073329 | 58 | 204 | 6.1 | 15.6 | 0.00 | 0.00 | 0.00 | 85 | 1011.7 |
| 20260506072830 | 58 | 207 | 6.1 | 13.9 | 0.00 | 0.00 | 0.00 | 85 | 1011.8 |
| 20260506072330 | 58 | 194 | 5.2 | 13.9 | 0.00 | 0.00 | 0.00 | 85 | 1011.6 |
| 20260506071830 | 58 | 186 | 6.1 | 19.1 | 0.00 | 0.00 | 0.00 | 85 | 1011.6 |
| 20260506071329 | 58 | 197 | 7.0 | 19.1 | 0.00 | 0.00 | 0.00 | 85 | 1011.5 |
| 20260506070829 | 58 | 101 | 6.1 | 15.6 | 0.00 | 0.00 | 0.00 | 85 | 1011.6 |
| 20260506070326 | 58 | 220 | 6.1 | 17.4 | 0.00 | 0.00 | 0.00 | 85 | 1011.5 |
| 20260506062311 | 58 | 264 | 6.1 | 14.8 | 0.00 | 0.00 | 0.00 | 85 | 1011.5 |
| 20260506061820 | 58 | 197 | 6.1 | 14.8 | 0.00 | 0.00 | 0.00 | 84 | 1011.6 |
| 20260506061310 | 58 | 221 | 5.2 | 12.2 | 0.00 | 0.00 | 0.00 | 84 | 1011.6 |
| 20260506060810 | 58 | 184 | 5.2 | 17.4 | 0.00 | 0.00 | 0.00 | 84 | 1011.7 |
| 20260506060310 | 58 | 208 | 5.2 | 17.4 | 0.00 | 0.00 | 0.00 | 84 | 1011.7 |
| 20260506051258 | 58 | 217 | 7.0 | 17.4 | 0.00 | 0.00 | 0.00 | 83 | 1011.9 |
| 20260506050758 | 58 | 176 | 6.1 | 17.4 | 0.00 | 0.00 | 0.00 | 83 | 1011.9 |
| 20260506050300 | 58 | 231 | 5.2 | 15.6 | 0.00 | 0.00 | 0.00 | 83 | 1011.8 |
| 20260506044758 | 58 | 194 | 5.2 | 20.0 | 0.00 | 0.00 | 0.00 | 83 | 1012.2 |
| 20260506044258 | 58 | 214 | 5.2 | 20.0 | 0.00 | 0.00 | 0.00 | 83 | 1012.2 |
| 20260506044034 | 58 | 229 | 6.1 | 16.5 | 0.00 | 0.00 | 0.00 | 83 | 1012.0 |
| 20260506043258 | 58 | 218 | 7.0 | 16.5 | 0.00 | 0.00 | 0.00 | 83 | 1012.0 |
| 20260506042758 | 58 | 130 | 7.0 | 16.5 | 0.00 | 0.00 | 0.00 | 83 | 1012.0 |
| 20260506042258 | 58 | 269 | 6.1 | 16.5 | 0.00 | 0.00 | 0.00 | 83 | 1012.0 |
| 20260506041759 | 58 | 174 | 6.1 | 13.9 | 0.00 | 0.00 | 0.00 | 83 | 1012.0 |
| 20260506041259 | 58 | 181 | 6.1 | 13.9 | 0.00 | 0.00 | 0.00 | 83 | 1011.9 |
| 20260506040759 | 58 | 227 | 6.1 | 14.8 | 0.00 | 0.00 | 0.00 | 83 | 1011.8 |
| 20260506035752 | 58 | 221 | 6.1 | 21.7 | 0.00 | 0.00 | 0.00 | 82 | 1011.9 |
| 20260506035249 | 58 | 225 | 6.1 | 21.7 | 0.00 | 0.00 | 0.00 | 82 | 1011.9 |
| 20260506034751 | 58 | 225 | 7.0 | 15.6 | 0.00 | 0.00 | 0.00 | 82 | 1011.8 |
| 20260506034524 | 58 | 175 | 6.1 | 16.5 | 0.00 | 0.00 | 0.00 | 82 | 1012.0 |
| 20260506033749 | 58 | 192 | 5.2 | 16.5 | 0.00 | 0.00 | 0.00 | 82 | 1011.8 |
| 20260506033521 | 58 | 213 | 6.1 | 15.6 | 0.00 | 0.00 | 0.00 | 81 | 1011.9 |
| 20260506032748 | 58 | 212 | 5.2 | 15.6 | 0.00 | 0.00 | 0.00 | 81 | 1011.8 |
| 20260506032251 | 58 | 195 | 6.1 | 14.8 | 0.00 | 0.00 | 0.00 | 81 | 1011.7 |
| 20260506031750 | 58 | 198 | 7.0 | 14.8 | 0.00 | 0.00 | 0.00 | 80 | 1011.7 |
| 20260506031248 | 58 | 244 | 7.0 | 16.5 | 0.00 | 0.00 | 0.00 | 80 | 1011.7 |
| 20260506030748 | 58 | 272 | 7.8 | 19.1 | 0.00 | 0.00 | 0.00 | 80 | 1011.7 |
| 20260506030250 | 59 | 246 | 7.8 | 19.1 | 0.00 | 0.00 | 0.00 | 79 | 1011.7 |
| 20260506025745 | 58 | 179 | 7.8 | 19.1 | 0.00 | 0.00 | 0.00 | 79 | 1011.6 |
| 20260506025512 | 58 | 235 | 7.0 | 19.1 | 0.00 | 0.00 | 0.00 | 79 | 1011.5 |
| 20260506025019 | 58 | 202 | 6.1 | 19.1 | 0.00 | 0.00 | 0.00 | 79 | 1011.5 |
| 20260506024245 | 58 | 219 | 5.2 | 16.5 | 0.00 | 0.00 | 0.00 | 79 | 1011.6 |
| 20260506023745 | 58 | 54 | 6.1 | 16.5 | 0.00 | 0.00 | 0.00 | 79 | 1011.5 |
| 20260506023245 | 58 | 186 | 6.1 | 15.6 | 0.00 | 0.00 | 0.00 | 79 | 1011.5 |
| 20260506022744 | 58 | 212 | 5.2 | 13.9 | 0.00 | 0.00 | 0.00 | 79 | 1011.5 |
| 20260506022247 | 58 | 260 | 6.1 | 16.5 | 0.00 | 0.00 | 0.00 | 79 | 1011.5 |
| 20260506021746 | 58 | 194 | 6.1 | 16.5 | 0.00 | 0.00 | 0.00 | 79 | 1011.6 |
| 20260506021246 | 58 | 178 | 5.2 | 14.8 | 0.00 | 0.00 | 0.00 | 79 | 1011.7 |
| 20260506020744 | 58 | 167 | 5.2 | 14.8 | 0.00 | 0.00 | 0.00 | 78 | 1011.6 |
| 20260506020245 | 58 | 180 | 6.1 | 15.6 | 0.00 | 0.00 | 0.00 | 78 | 1011.6 |
| 20260506015746 | 58 | 186 | 6.1 | 15.6 | 0.00 | 0.00 | 0.00 | 78 | 1011.6 |
| 20260506015245 | 58 | 256 | 5.2 | 12.2 | 0.00 | 0.00 | 0.00 | 78 | 1011.5 |
| 20260506014743 | 58 | 246 | 6.1 | 19.1 | 0.00 | 0.00 | 0.00 | 77 | 1011.6 |
| 20260506014533 | 58 | 167 | 6.1 | 19.1 | 0.00 | 0.00 | 0.00 | 77 | 1011.6 |
| 20260506013741 | 58 | 189 | 6.1 | 20.0 | 0.00 | 0.00 | 0.00 | 77 | 1011.7 |
| 20260506013240 | 58 | 177 | 6.1 | 20.9 | 0.00 | 0.00 | 0.00 | 77 | 1011.5 |
| 20260506012741 | 58 | 228 | 6.1 | 20.9 | 0.00 | 0.00 | 0.00 | 77 | 1011.5 |
| 20260506012241 | 58 | 221 | 6.1 | 16.5 | 0.00 | 0.00 | 0.00 | 77 | 1011.5 |
| 20260506011741 | 58 | 211 | 6.1 | 16.5 | 0.00 | 0.00 | 0.00 | 77 | 1011.3 |
| 20260506011240 | 58 | 249 | 7.0 | 16.5 | 0.00 | 0.00 | 0.00 | 77 | 1011.3 |
| 20260506010734 | 58 | 216 | 7.8 | 20.9 | 0.00 | 0.00 | 0.00 | 77 | 1011.2 |
| 20260506010456 | 58 | 245 | 7.8 | 20.9 | 0.00 | 0.00 | 0.00 | 77 | 1011.1 |
| 20260506005729 | 58 | 193 | 7.0 | 15.6 | 0.00 | 0.00 | 0.00 | 77 | 1011.0 |
| 20260506005230 | 58 | 235 | 6.1 | 15.6 | 0.00 | 0.00 | 0.00 | 77 | 1011.0 |
| 20260506004729 | 58 | 180 | 7.0 | 19.1 | 0.00 | 0.00 | 0.00 | 77 | 1011.1 |
| 20260506004230 | 58 | 190 | 7.0 | 19.1 | 0.00 | 0.00 | 0.00 | 78 | 1010.9 |
| 20260506004000 | 58 | 211 | 6.1 | 17.4 | 0.00 | 0.00 | 0.00 | 78 | 1010.9 |
| 20260506003501 | 58 | 198 | 7.0 | 17.4 | 0.00 | 0.00 | 0.00 | 78 | 1010.7 |
| 20260506002729 | 58 | 238 | 7.0 | 17.4 | 0.00 | 0.00 | 0.00 | 78 | 1010.5 |
| 20260506002227 | 58 | 208 | 6.1 | 17.4 | 0.00 | 0.00 | 0.00 | 78 | 1010.5 |
| 20260506001726 | 58 | 173 | 6.1 | 16.5 | 0.00 | 0.00 | 0.00 | 78 | 1010.6 |
| 20260506001224 | 58 | 204 | 6.1 | 16.5 | 0.00 | 0.00 | 0.00 | 78 | 1010.3 |
| 20260506000726 | 58 | 196 | 6.1 | 18.2 | 0.00 | 0.00 | 0.00 | 78 | 1010.4 |
| 20260506000226 | 58 | 187 | 7.0 | 18.2 | 0.00 | 0.00 | 0.00 | 78 | 1010.1 |
| 20260505235725 | 58 | 223 | 7.0 | 16.5 | 0.00 | 0.00 | 0.00 | 77 | 1009.8 |
| 20260505235223 | 58 | 228 | 6.1 | 16.5 | 0.00 | 0.00 | 0.00 | 77 | 1009.4 |
| 20260505234732 | 58 | 184 | 6.1 | 19.1 | 0.00 | 0.00 | 0.00 | 77 | 1009.5 |
| 20260505233722 | 59 | 229 | 6.1 | 17.4 | 0.00 | 0.00 | 0.00 | 77 | 1009.6 |
| 20260505233222 | 59 | 202 | 6.1 | 14.8 | 0.00 | 0.00 | 0.00 | 76 | 1009.6 |
| 20260505232716 | 59 | 209 | 6.1 | 14.8 | 0.00 | 0.00 | 0.00 | 76 | 1009.7 |
| 20260505232212 | 59 | 219 | 7.0 | 16.5 | 0.00 | 0.00 | 0.00 | 76 | 1009.7 |
| 20260505231712 | 59 | 190 | 7.8 | 17.4 | 0.00 | 0.00 | 0.00 | 76 | 1009.8 |